| time (UTC) | temp F | wind direction | speed MPH | gust MPH | rain 1hr in | rain 24hr in | rain mn in | humidity % | barometer mb |
| 20260510214603 | 67 | 326 | 6.0 | 17.0 | 0.00 | 0.00 | 0.00 | 81 | 1017.3 |
| 20260510214441 | 67 | 344 | 3.0 | 8.0 | 0.00 | 0.00 | 0.00 | 83 | 1015.4 |
| 20260510214000 | 67 | 75 | 4.0 | 13.0 | 0.00 | 0.00 | 0.00 | 82 | 1016.7 |
| 20260510212911 | 67 | 341 | 6.0 | 17.0 | 0.00 | 0.00 | 0.00 | 81 | 1016.9 |
| 20260510212406 | 67 | 352 | 7.0 | 15.0 | 0.00 | 0.00 | 0.00 | 80 | 1016.5 |
| 20260510211905 | 68 | 318 | 7.0 | 15.0 | 0.00 | 0.00 | 0.00 | 78 | 1016.3 |
| 20260510211344 | 69 | 21 | 7.0 | 15.0 | 0.00 | 0.00 | 0.00 | 77 | 1016.1 |
| 20260510210826 | 69 | 50 | 6.0 | 15.0 | 0.00 | 0.00 | 0.00 | 76 | 1015.8 |
| 20260510210324 | 71 | 301 | 4.0 | 12.0 | 0.00 | 0.00 | 0.00 | 74 | 1015.9 |
| 20260510205758 | 72 | 319 | 3.0 | 12.0 | 0.00 | 0.00 | 0.00 | 73 | 1015.6 |
| 20260510205230 | 72 | 80 | 4.0 | 12.0 | 0.00 | 0.00 | 0.00 | 73 | 1015.6 |
| 20260510204728 | 73 | 359 | 4.0 | 12.0 | 0.00 | 0.00 | 0.00 | 71 | 1015.5 |
| 20260510204204 | 72 | 71 | 5.0 | 17.0 | 0.00 | 0.00 | 0.00 | 75 | 1015.5 |
| 20260510203634 | 71 | 55 | 6.0 | 17.0 | 0.00 | 0.00 | 0.00 | 75 | 1015.5 |
| 20260510203132 | 71 | 319 | 6.0 | 13.0 | 0.00 | 0.00 | 0.00 | 74 | 1015.5 |
| 20260510202607 | 71 | 329 | 5.0 | 13.0 | 0.00 | 0.00 | 0.00 | 73 | 1016.0 |
| 20260510202039 | 71 | 352 | 5.0 | 13.0 | 0.00 | 0.00 | 0.00 | 74 | 1015.9 |
| 20260510201538 | 71 | 63 | 6.0 | 13.0 | 0.00 | 0.00 | 0.00 | 74 | 1015.9 |
| 20260510201008 | 72 | 4 | 5.0 | 13.0 | 0.00 | 0.00 | 0.00 | 74 | 1016.2 |
| 20260510200728 | 72 | 24 | 3.0 | 9.0 | 0.00 | 0.00 | 0.00 | 73 | 1016.0 |
| 20260510200227 | 73 | 23 | 1.0 | 7.0 | 0.00 | 0.00 | 0.00 | 74 | 1015.9 |
| 20260510195944 | 73 | 3 | 2.0 | 7.0 | 0.00 | 0.00 | 0.00 | 76 | 1015.5 |
| 20260510195216 | 73 | 124 | 1.0 | 8.0 | 0.00 | 0.00 | 0.00 | 79 | 1015.5 |
| 20260510194457 | 72 | 13 | 3.0 | 11.0 | 0.00 | 0.00 | 0.00 | 86 | 1015.5 |
| 20260510193933 | 71 | 132 | 3.0 | 11.0 | 0.00 | 0.00 | 0.00 | 89 | 1015.6 |
| 20260510193405 | 70 | 154 | 3.0 | 10.0 | 0.00 | 0.00 | 0.00 | 89 | 1015.5 |
| 20260510192901 | 69 | 110 | 3.0 | 10.0 | 0.00 | 0.00 | 0.00 | 89 | 1015.5 |
| 20260510192600 | 69 | 121 | 3.0 | 10.0 | 0.00 | 0.00 | 0.00 | 90 | 1015.5 |
| 20260510191809 | 68 | 130 | 2.0 | 10.0 | 0.00 | 0.00 | 0.00 | 90 | 1015.7 |
| 20260510191305 | 68 | 108 | 2.0 | 6.0 | 0.00 | 0.00 | 0.00 | 90 | 1015.6 |
| 20260510190741 | 68 | 165 | 3.0 | 10.0 | 0.00 | 0.00 | 0.00 | 91 | 1015.6 |
| 20260510190236 | 67 | 110 | 3.0 | 10.0 | 0.00 | 0.00 | 0.00 | 91 | 1015.6 |
| 20260510185734 | 67 | 120 | 2.0 | 10.0 | 0.00 | 0.00 | 0.00 | 91 | 1015.6 |
| 20260510185427 | 67 | 35 | 2.0 | 7.0 | 0.00 | 0.00 | 0.00 | 91 | 1015.6 |
| 20260510184706 | 67 | 151 | 2.0 | 8.0 | 0.00 | 0.00 | 0.00 | 91 | 1015.7 |
| 20260510184156 | 67 | 134 | 2.0 | 8.0 | 0.00 | 0.00 | 0.00 | 91 | 1015.7 |
| 20260510183655 | 67 | 78 | 2.0 | 10.0 | 0.00 | 0.00 | 0.00 | 91 | 1015.8 |
| 20260510183129 | 66 | 146 | 1.0 | 10.0 | 0.00 | 0.00 | 0.00 | 91 | 1015.6 |
| 20260510182600 | 64 | 309 | 1.0 | 6.0 | 0.00 | 0.00 | 0.00 | 91 | 1015.5 |
| 20260510182056 | 64 | 319 | 1.0 | 6.0 | 0.00 | 0.00 | 0.00 | 91 | 1015.6 |
| 20260510181554 | 64 | 84 | 1.0 | 6.0 | 0.00 | 0.00 | 0.00 | 91 | 1015.6 |
| 20260510181053 | 63 | 125 | 1.0 | 6.0 | 0.00 | 0.00 | 0.00 | 90 | 1015.3 |
| 20260510180524 | 63 | 330 | 1.0 | 6.0 | 0.00 | 0.00 | 0.00 | 90 | 1015.0 |
| 20260510180023 | 63 | 284 | 1.0 | 6.0 | 0.00 | 0.00 | 0.00 | 90 | 1015.0 |
| 20260510175454 | 63 | 262 | 1.0 | 6.0 | 0.00 | 0.00 | 0.00 | 90 | 1015.0 |
| 20260510174952 | 63 | 240 | 2.0 | 10.0 | 0.00 | 0.00 | 0.00 | 90 | 1015.0 |
| 20260510174440 | 63 | 94 | 2.0 | 10.0 | 0.00 | 0.00 | 0.00 | 90 | 1015.4 |
| 20260510173943 | 63 | 200 | 4.0 | 13.0 | 0.00 | 0.00 | 0.00 | 90 | 1015.7 |
| 20260510173411 | 62 | 323 | 4.0 | 20.0 | 0.00 | 0.00 | 0.00 | 89 | 1015.9 |
| 20260510172910 | 63 | 317 | 6.0 | 20.0 | 0.00 | 0.00 | 0.00 | 89 | 1016.3 |
| 20260510172902 | 63 | 4 | 10.0 | 20.0 | 0.00 | 0.00 | 0.00 | 88 | 1016.0 |
| 20260510171841 | 63 | 345 | 10.0 | 19.0 | 0.00 | 0.00 | 0.00 | 87 | 1016.2 |
| 20260510171316 | 64 | 6 | 12.0 | 29.0 | 0.00 | 0.00 | 0.00 | 85 | 1016.4 |
| 20260510170745 | 66 | 7 | 13.0 | 30.0 | 0.00 | 0.00 | 0.00 | 80 | 1015.9 |
| 20260510170222 | 68 | 345 | 11.0 | 26.0 | 0.00 | 0.00 | 0.00 | 73 | 1015.8 |
| 20260510165656 | 71 | 316 | 7.0 | 21.0 | 0.00 | 0.00 | 0.00 | 67 | 1015.6 |
| 20260510165610 | 74 | 323 | 5.0 | 21.0 | 0.00 | 0.00 | 0.00 | 61 | 1015.7 |
| 20260510164608 | 77 | 308 | 2.0 | 19.0 | 0.00 | 0.00 | 0.00 | 60 | 1015.4 |
| 20260510164104 | 78 | 209 | 3.0 | 7.0 | 0.00 | 0.00 | 0.00 | 60 | 1014.3 |
| 20260510163833 | 78 | 174 | 3.0 | 9.0 | 0.00 | 0.00 | 0.00 | 60 | 1014.1 |
| 20260510163539 | 78 | 167 | 3.0 | 9.0 | 0.00 | 0.00 | 0.00 | 59 | 1013.9 |
| 20260510162024 | 78 | 170 | 6.0 | 16.0 | 0.00 | 0.00 | 0.00 | 59 | 1013.5 |
| 20260510161523 | 79 | 117 | 7.0 | 16.0 | 0.00 | 0.00 | 0.00 | 58 | 1013.2 |
| 20260510161007 | 79 | 254 | 6.0 | 12.0 | 0.00 | 0.00 | 0.00 | 59 | 1013.0 |
| 20260510160507 | 79 | 143 | 5.0 | 11.0 | 0.00 | 0.00 | 0.00 | 59 | 1012.8 |
| 20260510160007 | 78 | 205 | 5.0 | 9.0 | 0.00 | 0.00 | 0.00 | 62 | 1012.8 |
| 20260510155958 | 78 | 240 | 5.0 | 12.0 | 0.00 | 0.00 | 0.00 | 64 | 1012.7 |
| 20260510155006 | 77 | 187 | 5.0 | 12.0 | 0.00 | 0.00 | 0.00 | 62 | 1012.6 |
| 20260510154506 | 77 | 110 | 5.0 | 14.0 | 0.00 | 0.00 | 0.00 | 65 | 1012.4 |
| 20260510154003 | 76 | 129 | 6.0 | 14.0 | 0.00 | 0.00 | 0.00 | 64 | 1012.4 |
| 20260510153502 | 75 | 159 | 6.0 | 13.0 | 0.00 | 0.00 | 0.00 | 64 | 1012.3 |
| 20260510153000 | 75 | 237 | 6.0 | 13.0 | 0.00 | 0.00 | 0.00 | 64 | 1012.4 |
| 20260510152500 | 75 | 255 | 6.0 | 14.0 | 0.00 | 0.00 | 0.00 | 64 | 1012.6 |
| 20260510151959 | 74 | 136 | 6.0 | 14.0 | 0.00 | 0.00 | 0.00 | 67 | 1012.5 |
| 20260510151459 | 74 | 141 | 7.0 | 13.0 | 0.00 | 0.00 | 0.00 | 66 | 1012.4 |
| 20260510150957 | 73 | 229 | 6.0 | 14.0 | 0.00 | 0.00 | 0.00 | 67 | 1012.4 |
| 20260510150456 | 73 | 214 | 6.0 | 15.0 | 0.00 | 0.00 | 0.00 | 69 | 1012.4 |
| 20260510145935 | 72 | 238 | 6.0 | 15.0 | 0.00 | 0.00 | 0.00 | 70 | 1012.3 |
| 20260510145434 | 72 | 245 | 7.0 | 14.0 | 0.00 | 0.00 | 0.00 | 72 | 1012.2 |
| 20260510144911 | 71 | 173 | 7.0 | 14.0 | 0.00 | 0.00 | 0.00 | 73 | 1012.1 |
| 20260510144414 | 71 | 265 | 5.0 | 12.0 | 0.00 | 0.00 | 0.00 | 73 | 1012.2 |
| 20260510143851 | 70 | 193 | 5.0 | 11.0 | 0.00 | 0.00 | 0.00 | 75 | 1012.6 |
| 20260510143329 | 70 | 147 | 5.0 | 11.0 | 0.00 | 0.00 | 0.00 | 76 | 1012.7 |
| 20260510142824 | 69 | 165 | 5.0 | 10.0 | 0.00 | 0.00 | 0.00 | 76 | 1012.6 |
| 20260510142310 | 69 | 229 | 5.0 | 10.0 | 0.00 | 0.00 | 0.00 | 79 | 1012.6 |
| 20260510142007 | 68 | 216 | 4.0 | 10.0 | 0.00 | 0.00 | 0.00 | 80 | 1012.8 |
| 20260510141232 | 67 | 251 | 4.0 | 10.0 | 0.00 | 0.00 | 0.00 | 83 | 1013.1 |
| 20260510140703 | 67 | 186 | 4.0 | 10.0 | 0.00 | 0.00 | 0.00 | 82 | 1013.4 |
| 20260510140410 | 66 | 132 | 3.0 | 9.0 | 0.00 | 0.00 | 0.00 | 83 | 1013.5 |
| 20260510135847 | 66 | 158 | 2.0 | 8.0 | 0.00 | 0.00 | 0.00 | 85 | 1013.7 |
| 20260510135127 | 66 | 155 | 2.0 | 5.0 | 0.00 | 0.00 | 0.00 | 87 | 1013.7 |
| 20260510134629 | 65 | 154 | 2.0 | 4.0 | 0.00 | 0.00 | 0.00 | 88 | 1013.9 |
| 20260510134107 | 65 | 136 | 1.0 | 5.0 | 0.00 | 0.00 | 0.00 | 89 | 1013.9 |
| 20260510133541 | 65 | 247 | 1.0 | 5.0 | 0.00 | 0.00 | 0.00 | 89 | 1013.8 |
| 20260510133238 | 65 | 153 | 2.0 | 6.0 | 0.00 | 0.00 | 0.00 | 90 | 1013.8 |
| 20260510132518 | 65 | 191 | 2.0 | 6.0 | 0.00 | 0.00 | 0.00 | 90 | 1013.6 |
| 20260510131952 | 65 | 127 | 2.0 | 6.0 | 0.00 | 0.00 | 0.00 | 90 | 1013.6 |
| 20260510131432 | 65 | 154 | 2.0 | 6.0 | 0.00 | 0.00 | 0.00 | 90 | 1013.5 |
| 20260510130928 | 65 | 130 | 2.0 | 6.0 | 0.00 | 0.00 | 0.00 | 91 | 1013.4 |
| 20260510130429 | 64 | 105 | 2.0 | 6.0 | 0.00 | 0.00 | 0.00 | 91 | 1013.4 |
| 20260510125859 | 64 | 111 | 2.0 | 5.0 | 0.00 | 0.00 | 0.00 | 91 | 1013.3 |
| 20260510125359 | 64 | 113 | 1.0 | 6.0 | 0.00 | 0.00 | 0.00 | 91 | 1013.4 |
| 20260510124858 | 64 | 151 | 1.0 | 6.0 | 0.00 | 0.00 | 0.00 | 91 | 1013.4 |
| 20260510124357 | 64 | 123 | 1.0 | 5.0 | 0.00 | 0.00 | 0.00 | 91 | 1013.4 |
| 20260510123900 | 64 | 161 | 1.0 | 5.0 | 0.00 | 0.00 | 0.00 | 91 | 1013.2 |
| 20260510123333 | 64 | 108 | 1.0 | 4.0 | 0.00 | 0.00 | 0.00 | 91 | 1013.2 |
| 20260510122810 | 64 | 129 | 1.0 | 5.0 | 0.00 | 0.00 | 0.00 | 91 | 1013.0 |
| 20260510122506 | 63 | 143 | 1.0 | 5.0 | 0.00 | 0.00 | 0.00 | 91 | 1013.0 |
| 20260510121746 | 63 | 124 | 0.0 | 3.0 | 0.00 | 0.00 | 0.00 | 91 | 1013.0 |
| 20260510121217 | 63 | 126 | 0.0 | 3.0 | 0.00 | 0.00 | 0.00 | 91 | 1013.0 |
| 20260510121205 | 63 | 128 | 0.0 | 2.0 | 0.00 | 0.00 | 0.00 | 91 | 1012.9 |
| 20260510120148 | 63 | 128 | 0.0 | 2.0 | 0.00 | 0.00 | 0.00 | 91 | 1012.9 |
| 20260510115643 | 63 | 128 | 0.0 | 2.0 | 0.00 | 0.00 | 0.00 | 91 | 1012.9 |
| 20260510115141 | 63 | 128 | 0.0 | 2.0 | 0.00 | 0.00 | 0.00 | 91 | 1012.9 |
| 20260510114615 | 63 | 128 | 0.0 | 0.0 | 0.00 | 0.00 | 0.00 | 90 | 1012.9 |
| 20260510114048 | 63 | 128 | 0.0 | 0.0 | 0.00 | 0.00 | 0.00 | 90 | 1013.0 |
| 20260510113523 | 63 | 128 | 0.0 | 1.0 | 0.00 | 0.00 | 0.00 | 90 | 1012.9 |
| 20260510113015 | 63 | 128 | 0.0 | 1.0 | 0.00 | 0.00 | 0.00 | 90 | 1012.8 |
| 20260510112738 | 63 | 128 | 0.0 | 0.0 | 0.00 | 0.00 | 0.00 | 90 | 1012.7 |
| 20260510112003 | 63 | 128 | 0.0 | 1.0 | 0.00 | 0.00 | 0.00 | 90 | 1012.7 |
| 20260510111438 | 63 | 128 | 0.0 | 1.0 | 0.00 | 0.00 | 0.00 | 90 | 1012.5 |
| 20260510110938 | 63 | 128 | 0.0 | 2.0 | 0.00 | 0.00 | 0.00 | 90 | 1012.6 |
| 20260510110414 | 63 | 128 | 1.0 | 4.0 | 0.00 | 0.00 | 0.00 | 90 | 1012.6 |
| 20260510105913 | 63 | 127 | 1.0 | 4.0 | 0.00 | 0.00 | 0.00 | 90 | 1012.5 |
| 20260510105635 | 63 | 134 | 2.0 | 5.0 | 0.00 | 0.00 | 0.00 | 90 | 1012.4 |
| 20260510104912 | 64 | 91 | 2.0 | 5.0 | 0.00 | 0.00 | 0.00 | 90 | 1012.2 |
| 20260510104356 | 64 | 108 | 1.0 | 4.0 | 0.00 | 0.00 | 0.00 | 90 | 1012.2 |
| 20260510103857 | 64 | 135 | 0.0 | 3.0 | 0.00 | 0.00 | 0.00 | 90 | 1012.3 |
| 20260510103620 | 64 | 310 | 0.0 | 3.0 | 0.00 | 0.00 | 0.00 | 89 | 1012.1 |
| 20260510102831 | 64 | 60 | 0.0 | 2.0 | 0.00 | 0.00 | 0.00 | 89 | 1012.3 |
| 20260510102308 | 64 | 27 | 1.0 | 7.0 | 0.00 | 0.00 | 0.00 | 89 | 1012.2 |
| 20260510101742 | 64 | 70 | 1.0 | 7.0 | 0.00 | 0.00 | 0.00 | 88 | 1012.2 |
| 20260510101439 | 64 | 109 | 2.0 | 9.0 | 0.00 | 0.00 | 0.00 | 88 | 1012.1 |
| 20260510100710 | 64 | 61 | 3.0 | 13.0 | 0.00 | 0.00 | 0.00 | 87 | 1011.7 |
| 20260510100144 | 65 | 56 | 4.0 | 13.0 | 0.00 | 0.00 | 0.00 | 86 | 1011.6 |
| 20260510095637 | 65 | 146 | 5.0 | 13.0 | 0.00 | 0.00 | 0.00 | 85 | 1011.6 |
| 20260510095133 | 66 | 23 | 5.0 | 15.0 | 0.00 | 0.00 | 0.00 | 83 | 1012.8 |
| 20260510094632 | 67 | 4 | 6.0 | 15.0 | 0.00 | 0.00 | 0.00 | 80 | 1014.1 |
| 20260510094127 | 68 | 319 | 6.0 | 16.0 | 0.00 | 0.00 | 0.00 | 77 | 1013.9 |
| 20260510093627 | 69 | 74 | 5.0 | 16.0 | 0.00 | 0.00 | 0.00 | 74 | 1013.2 |
| 20260510093537 | 70 | 91 | 5.0 | 15.0 | 0.00 | 0.00 | 0.00 | 71 | 1012.7 |
| 20260510092533 | 71 | 349 | 6.0 | 18.0 | 0.00 | 0.00 | 0.00 | 71 | 1012.7 |
| 20260510092005 | 71 | 15 | 7.0 | 18.0 | 0.00 | 0.00 | 0.00 | 72 | 1012.3 |
| 20260510091505 | 72 | 140 | 6.0 | 24.0 | 0.00 | 0.00 | 0.00 | 73 | 1012.1 |
| 20260510090939 | 73 | 12 | 3.0 | 14.0 | 0.00 | 0.00 | 0.00 | 85 | 1011.9 |
| 20260510090412 | 74 | 46 | 2.0 | 10.0 | 0.00 | 0.00 | 0.00 | 85 | 1011.6 |
| 20260510085843 | 74 | 79 | 1.0 | 4.0 | 0.00 | 0.00 | 0.00 | 63 | 1011.5 |
| 20260510085340 | 74 | 6 | 1.0 | 4.0 | 0.00 | 0.00 | 0.00 | 63 | 1011.3 |
| 20260510085013 | 74 | 74 | 0.0 | 2.0 | 0.00 | 0.00 | 0.00 | 63 | 1010.4 |
| 20260510084857 | 74 | 54 | 0.0 | 2.0 | 0.00 | 0.00 | 0.00 | 63 | 1010.8 |
| 20260510083811 | 74 | 37 | 0.0 | 3.0 | 0.00 | 0.00 | 0.00 | 63 | 1010.6 |
| 20260510083241 | 74 | 41 | 1.0 | 3.0 | 0.00 | 0.00 | 0.00 | 62 | 1010.7 |
| 20260510082739 | 74 | 37 | 1.0 | 4.0 | 0.00 | 0.00 | 0.00 | 62 | 1010.7 |
| 20260510082211 | 74 | 359 | 1.0 | 4.0 | 0.00 | 0.00 | 0.00 | 62 | 1010.8 |
| 20260510081930 | 74 | 31 | 1.0 | 3.0 | 0.00 | 0.00 | 0.00 | 61 | 1010.5 |
| 20260510081141 | 74 | 153 | 1.0 | 2.0 | 0.00 | 0.00 | 0.00 | 60 | 1010.3 |
| 20260510080640 | 74 | 164 | 0.0 | 2.0 | 0.00 | 0.00 | 0.00 | 60 | 1010.0 |
| 20260510080115 | 74 | 164 | 0.0 | 0.0 | 0.00 | 0.00 | 0.00 | 60 | 1009.7 |
| 20260510075549 | 74 | 164 | 0.0 | 0.0 | 0.00 | 0.00 | 0.00 | 60 | 1009.6 |
| 20260510075019 | 75 | 164 | 0.0 | 3.0 | 0.00 | 0.00 | 0.00 | 60 | 1009.4 |
| 20260510074517 | 75 | 164 | 0.0 | 3.0 | 0.00 | 0.00 | 0.00 | 60 | 1009.3 |
| 20260510073952 | 75 | 164 | 0.0 | 7.0 | 0.00 | 0.00 | 0.00 | 60 | 1009.1 |
| 20260510073425 | 75 | 164 | 1.0 | 7.0 | 0.00 | 0.00 | 0.00 | 60 | 1008.9 |
| 20260510072857 | 75 | 164 | 2.0 | 5.0 | 0.00 | 0.00 | 0.00 | 59 | 1008.7 |
| 20260510072359 | 75 | 160 | 1.0 | 5.0 | 0.00 | 0.00 | 0.00 | 58 | 1008.9 |
| 20260510071820 | 75 | 109 | 0.0 | 3.0 | 0.00 | 0.00 | 0.00 | 58 | 1009.0 |
| 20260510071317 | 76 | 71 | 0.0 | 6.0 | 0.00 | 0.00 | 0.00 | 58 | 1009.2 |
| 20260510070753 | 76 | 11 | 0.0 | 6.0 | 0.00 | 0.00 | 0.00 | 58 | 1009.7 |
| 20260510070228 | 76 | 4 | 1.0 | 6.0 | 0.00 | 0.00 | 0.00 | 58 | 1010.1 |
| 20260510065659 | 75 | 36 | 2.0 | 6.0 | 0.00 | 0.00 | 0.00 | 58 | 1010.2 |
| 20260510065158 | 75 | 20 | 1.0 | 5.0 | 0.00 | 0.00 | 0.00 | 57 | 1010.3 |
| 20260510064629 | 75 | 10 | 2.0 | 5.0 | 0.00 | 0.00 | 0.00 | 57 | 1010.3 |
| 20260510064126 | 75 | 0 | 1.0 | 5.0 | 0.00 | 0.00 | 0.00 | 57 | 1010.3 |
| 20260510063623 | 75 | 2 | 1.0 | 5.0 | 0.00 | 0.00 | 0.00 | 57 | 1010.2 |
| 20260510063121 | 75 | 1 | 2.0 | 5.0 | 0.00 | 0.00 | 0.00 | 57 | 1010.2 |
| 20260510062553 | 75 | 359 | 3.0 | 5.0 | 0.00 | 0.00 | 0.00 | 57 | 1010.3 |
| 20260510062050 | 75 | 13 | 1.0 | 4.0 | 0.00 | 0.00 | 0.00 | 57 | 1010.3 |
| 20260510061547 | 75 | 170 | 0.0 | 2.0 | 0.00 | 0.00 | 0.00 | 57 | 1009.9 |
| 20260510061044 | 75 | 170 | 0.0 | 5.0 | 0.00 | 0.00 | 0.00 | 57 | 1009.3 |
| 20260510060541 | 75 | 170 | 1.0 | 5.0 | 0.00 | 0.00 | 0.00 | 57 | 1008.8 |
| 20260510060307 | 75 | 172 | 2.0 | 8.0 | 0.00 | 0.00 | 0.00 | 57 | 1008.4 |
| 20260510055513 | 75 | 170 | 2.0 | 8.0 | 0.00 | 0.00 | 0.00 | 57 | 1008.4 |
| 20260510055011 | 75 | 160 | 2.0 | 8.0 | 0.00 | 0.00 | 0.00 | 57 | 1008.4 |
| 20260510054443 | 75 | 164 | 2.0 | 8.0 | 0.00 | 0.00 | 0.00 | 58 | 1008.4 |
| 20260510053941 | 75 | 164 | 2.0 | 9.0 | 0.00 | 0.00 | 0.00 | 58 | 1008.3 |
| 20260510053413 | 75 | 158 | 3.0 | 9.0 | 0.00 | 0.00 | 0.00 | 58 | 1008.1 |
| 20260510052911 | 75 | 151 | 3.0 | 11.0 | 0.00 | 0.00 | 0.00 | 58 | 1007.9 |
| 20260510052346 | 75 | 168 | 3.0 | 11.0 | 0.00 | 0.00 | 0.00 | 58 | 1008.1 |
| 20260510052255 | 75 | 160 | 2.0 | 5.0 | 0.00 | 0.00 | 0.00 | 58 | 1008.2 |
| 20260510051252 | 76 | 162 | 2.0 | 8.0 | 0.00 | 0.00 | 0.00 | 57 | 1008.3 |
| 20260510051009 | 76 | 163 | 2.0 | 8.0 | 0.00 | 0.00 | 0.00 | 57 | 1008.1 |
| 20260510050512 | 75 | 138 | 3.0 | 11.0 | 0.00 | 0.00 | 0.00 | 78 | 1008.0 |
| 20260510045736 | 75 | 143 | 4.0 | 11.0 | 0.00 | 0.00 | 0.00 | 77 | 1007.9 |
| 20260510045236 | 76 | 120 | 5.0 | 12.0 | 0.00 | 0.00 | 0.00 | 77 | 1007.9 |
| 20260510044736 | 76 | 142 | 4.0 | 12.0 | 0.00 | 0.00 | 0.00 | 77 | 1007.7 |
| 20260510044222 | 76 | 132 | 3.0 | 9.0 | 0.00 | 0.00 | 0.00 | 76 | 1007.7 |
| 20260510043724 | 76 | 146 | 3.0 | 8.0 | 0.00 | 0.00 | 0.00 | 75 | 1007.6 |
| 20260510043206 | 76 | 136 | 4.0 | 8.0 | 0.00 | 0.00 | 0.00 | 75 | 1007.5 |
| 20260510042928 | 76 | 141 | 3.0 | 8.0 | 0.00 | 0.00 | 0.00 | 73 | 1007.6 |
| 20260510042204 | 76 | 143 | 2.0 | 8.0 | 0.00 | 0.00 | 0.00 | 72 | 1007.7 |
| 20260510041922 | 76 | 139 | 2.0 | 6.0 | 0.00 | 0.00 | 0.00 | 70 | 1007.9 |
| 20260510041200 | 76 | 121 | 2.0 | 7.0 | 0.00 | 0.00 | 0.00 | 69 | 1008.0 |
| 20260510040703 | 76 | 143 | 1.0 | 7.0 | 0.00 | 0.00 | 0.00 | 68 | 1008.0 |
| 20260510040622 | 76 | 127 | 2.0 | 4.0 | 0.00 | 0.00 | 0.00 | 68 | 1008.0 |
| 20260510035640 | 76 | 110 | 1.0 | 5.0 | 0.00 | 0.00 | 0.00 | 68 | 1007.9 |
| 20260510035118 | 76 | 125 | 1.0 | 3.0 | 0.00 | 0.00 | 0.00 | 68 | 1007.9 |
| 20260510034617 | 76 | 156 | 1.0 | 5.0 | 0.00 | 0.00 | 0.00 | 68 | 1007.9 |
| 20260510034107 | 76 | 141 | 1.0 | 5.0 | 0.00 | 0.00 | 0.00 | 67 | 1007.8 |
| 20260510033539 | 76 | 138 | 1.0 | 3.0 | 0.00 | 0.00 | 0.00 | 68 | 1007.8 |
| 20260510033035 | 75 | 117 | 0.0 | 2.0 | 0.00 | 0.00 | 0.00 | 69 | 1007.8 |
| 20260510032534 | 76 | 148 | 0.0 | 1.0 | 0.00 | 0.00 | 0.00 | 68 | 1007.8 |
| 20260510032037 | 76 | 116 | 0.0 | 2.0 | 0.00 | 0.00 | 0.00 | 67 | 1007.9 |
| 20260510031728 | 76 | 131 | 0.0 | 2.0 | 0.00 | 0.00 | 0.00 | 67 | 1007.9 |
| 20260510031203 | 75 | 115 | 0.0 | 3.0 | 0.00 | 0.00 | 0.00 | 69 | 1008.0 |
| 20260510031048 | 76 | 128 | 0.0 | 3.0 | 0.00 | 0.00 | 0.00 | 68 | 1007.9 |
| 20260510030608 | 74 | 129 | 0.0 | 2.0 | 0.00 | 0.00 | 0.00 | 70 | 1007.9 |
| 20260510025411 | 74 | 132 | 0.0 | 2.0 | 0.00 | 0.00 | 0.00 | 71 | 1007.9 |
| 20260510024842 | 74 | 117 | 0.0 | 0.0 | 0.00 | 0.00 | 0.00 | 71 | 1007.9 |
| 20260510024339 | 74 | 58 | 0.0 | 0.0 | 0.00 | 0.00 | 0.00 | 71 | 1007.9 |
| 20260510024052 | 74 | 58 | 0.0 | 0.0 | 0.00 | 0.00 | 0.00 | 70 | 1007.8 |
| 20260510023333 | 74 | 58 | 0.0 | 0.0 | 0.00 | 0.00 | 0.00 | 70 | 1007.8 |
| 20260510022810 | 74 | 58 | 0.0 | 0.0 | 0.00 | 0.00 | 0.00 | 69 | 1007.7 |
| 20260510022240 | 74 | 58 | 0.0 | 0.0 | 0.00 | 0.00 | 0.00 | 68 | 1007.7 |
| 20260510021737 | 75 | 58 | 0.0 | 0.0 | 0.00 | 0.00 | 0.00 | 67 | 1007.6 |
| 20260510021211 | 75 | 58 | 0.0 | 0.0 | 0.00 | 0.00 | 0.00 | 67 | 1007.6 |
| 20260510020708 | 75 | 58 | 0.0 | 0.0 | 0.00 | 0.00 | 0.00 | 66 | 1007.6 |
| 20260510020207 | 76 | 58 | 0.0 | 0.0 | 0.00 | 0.00 | 0.00 | 66 | 1007.5 |
| 20260510015654 | 76 | 58 | 0.0 | 0.0 | 0.00 | 0.00 | 0.00 | 66 | 1007.4 |
| 20260510015156 | 76 | 58 | 0.0 | 0.0 | 0.00 | 0.00 | 0.00 | 65 | 1007.3 |
| 20260510014909 | 77 | 58 | 0.0 | 0.0 | 0.00 | 0.00 | 0.00 | 64 | 1007.3 |
| 20260510014543 | 77 | 58 | 0.0 | 0.0 | 0.00 | 0.00 | 0.00 | 62 | 1007.2 |
| 20260510014205 | 77 | 58 | 0.0 | 0.0 | 0.00 | 0.00 | 0.00 | 63 | 1007.3 |
| 20260510013536 | 78 | 58 | 0.0 | 0.0 | 0.00 | 0.00 | 0.00 | 59 | 1007.2 |
| 20260510012810 | 78 | 58 | 0.0 | 0.0 | 0.00 | 0.00 | 0.00 | 58 | 1007.1 |
| 20260510012026 | 79 | 58 | 0.0 | 0.0 | 0.00 | 0.00 | 0.00 | 57 | 1007.0 |
| 20260510011456 | 79 | 58 | 0.0 | 2.0 | 0.00 | 0.00 | 0.00 | 57 | 1006.9 |
| 20260510011217 | 80 | 58 | 0.0 | 2.0 | 0.00 | 0.00 | 0.00 | 56 | 1006.8 |
| 20260510010429 | 80 | 30 | 0.0 | 1.0 | 0.00 | 0.00 | 0.00 | 54 | 1006.8 |
| 20260510005900 | 81 | 30 | 0.0 | 1.0 | 0.00 | 0.00 | 0.00 | 53 | 1006.7 |
| 20260510005357 | 82 | 30 | 0.0 | 1.0 | 0.00 | 0.00 | 0.00 | 52 | 1006.7 |
| 20260510004828 | 82 | 47 | 0.0 | 1.0 | 0.00 | 0.00 | 0.00 | 51 | 1006.7 |
| 20260510004327 | 82 | 49 | 0.0 | 1.0 | 0.00 | 0.00 | 0.00 | 50 | 1006.7 |
| 20260510003758 | 83 | 49 | 0.0 | 1.0 | 0.00 | 0.00 | 0.00 | 50 | 1006.7 |
| 20260510003256 | 83 | 49 | 0.0 | 1.0 | 0.00 | 0.00 | 0.00 | 50 | 1006.7 |
| 20260510002752 | 84 | 69 | 0.0 | 3.0 | 0.00 | 0.00 | 0.00 | 49 | 1006.7 |
| 20260510002511 | 84 | 75 | 0.0 | 2.0 | 0.00 | 0.00 | 0.00 | 47 | 1006.7 |
| 20260510001722 | 85 | 49 | 0.0 | 4.0 | 0.00 | 0.00 | 0.00 | 46 | 1006.8 |
| 20260510001218 | 85 | 324 | 0.0 | 4.0 | 0.00 | 0.00 | 0.00 | 44 | 1006.8 |
| 20260510000654 | 86 | 69 | 0.0 | 4.0 | 0.00 | 0.00 | 0.00 | 43 | 1006.8 |
| 20260510000126 | 86 | 35 | 0.0 | 4.0 | 0.00 | 0.00 | 0.00 | 42 | 1006.7 |
| 20260509235623 | 87 | 66 | 0.0 | 3.0 | 0.00 | 0.00 | 0.00 | 41 | 1006.7 |
| 20260509235342 | 87 | 54 | 0.0 | 3.0 | 0.00 | 0.00 | 0.00 | 41 | 1006.7 |
| 20260509234619 | 87 | 62 | 0.0 | 3.0 | 0.00 | 0.00 | 0.00 | 42 | 1006.7 |
| 20260509234051 | 87 | 77 | 0.0 | 3.0 | 0.00 | 0.00 | 0.00 | 44 | 1006.7 |
| 20260509234035 | 87 | 15 | 0.0 | 3.0 | 0.00 | 0.00 | 0.00 | 42 | 1006.7 |
| 20260509233044 | 87 | 336 | 0.0 | 3.0 | 0.00 | 0.00 | 0.00 | 42 | 1006.7 |
| 20260509232542 | 87 | 336 | 0.0 | 3.0 | 0.00 | 0.00 | 0.00 | 43 | 1006.7 |
| 20260509232018 | 87 | 56 | 0.0 | 3.0 | 0.00 | 0.00 | 0.00 | 45 | 1006.7 |
| 20260509231448 | 88 | 68 | 0.0 | 3.0 | 0.00 | 0.00 | 0.00 | 43 | 1006.7 |
| 20260509230947 | 87 | 68 | 0.0 | 5.0 | 0.00 | 0.00 | 0.00 | 42 | 1006.8 |
| 20260509230422 | 87 | 338 | 1.0 | 5.0 | 0.00 | 0.00 | 0.00 | 40 | 1006.8 |
| 20260509225852 | 87 | 73 | 1.0 | 5.0 | 0.00 | 0.00 | 0.00 | 38 | 1006.7 |
| 20260509225351 | 88 | 329 | 1.0 | 5.0 | 0.00 | 0.00 | 0.00 | 38 | 1006.7 |
| 20260509224824 | 88 | 36 | 0.0 | 5.0 | 0.00 | 0.00 | 0.00 | 39 | 1006.7 |
| 20260509224256 | 88 | 140 | 0.0 | 5.0 | 0.00 | 0.00 | 0.00 | 41 | 1006.7 |
| 20260509224020 | 88 | 86 | 0.0 | 3.0 | 0.00 | 0.00 | 0.00 | 41 | 1006.7 |
| 20260509223250 | 88 | 252 | 1.0 | 5.0 | 0.00 | 0.00 | 0.00 | 42 | 1006.7 |
| 20260509222746 | 88 | 130 | 1.0 | 5.0 | 0.00 | 0.00 | 0.00 | 43 | 1006.7 |
| 20260509222222 | 89 | 300 | 0.0 | 3.0 | 0.00 | 0.00 | 0.00 | 45 | 1006.6 |
| 20260509221654 | 88 | 51 | 0.0 | 3.0 | 0.00 | 0.00 | 0.00 | 46 | 1006.6 |
| 20260509221410 | 88 | 314 | 0.0 | 3.0 | 0.00 | 0.00 | 0.00 | 45 | 1006.7 |
| 20260509220645 | 87 | 10 | 0.0 | 3.0 | 0.00 | 0.00 | 0.00 | 46 | 1006.7 |
| 20260509220118 | 87 | 339 | 1.0 | 6.0 | 0.00 | 0.00 | 0.00 | 47 | 1006.7 |
| 20260509215558 | 87 | 121 | 2.0 | 7.0 | 0.00 | 0.00 | 0.00 | 48 | 1006.7 |
| 20260509215058 | 87 | 349 | 1.0 | 7.0 | 0.00 | 0.00 | 0.00 | 45 | 1006.7 |